Estación de Lontue

Ultimos registro cada 15 minutos 81
Estación Fecha / Hora Temperatura Humedad Lluvia Velocidad Dirección Radiación Presion
81 Lontue 08-05-2026 20:00 11,7 86,2 0 3,8 173 0,6 994,6
80 Lontue 08-05-2026 19:45 11,6 87 0 2,7 166 0,6 994,4
79 Lontue 08-05-2026 19:30 11,6 86,9 0 3,4 167 0,6 994,4
78 Lontue 08-05-2026 19:15 11,6 85,9 0 3,4 170 0,6 994
77 Lontue 08-05-2026 19:00 11,8 84,4 0 4,2 175 0,6 993,8
76 Lontue 08-05-2026 18:45 12 83,4 0 4,6 173 0,6 993,7
75 Lontue 08-05-2026 18:30 12,1 82,5 0 4,6 177 0,6 993,6
74 Lontue 08-05-2026 18:15 12,2 81 0 4,2 175 0,6 993,9
73 Lontue 08-05-2026 18:00 12,6 79,2 0 4,2 178 0,6 993,6
72 Lontue 08-05-2026 17:45 13,2 75,9 0 4,6 177 6,9 993,5
71 Lontue 08-05-2026 17:30 14 71,5 0 3 171 15,6 993,5
70 Lontue 08-05-2026 17:15 14,9 67,9 0 3 190 54,4 993,7
69 Lontue 08-05-2026 17:00 14,5 67,8 0 1,9 187 26,9 993,7
68 Lontue 08-05-2026 16:45 15,1 67,3 0 1,9 171 31,9 993,7
67 Lontue 08-05-2026 16:30 15,2 67,7 0 1,1 160 28,1 993,5
66 Lontue 08-05-2026 16:15 15,9 66,6 0 1,9 146 63,1 993,4
65 Lontue 08-05-2026 16:00 17,1 62,6 0 1,9 157 124,4 993,4
64 Lontue 08-05-2026 15:45 17 63,4 0 2,7 136 69,4 993,5
63 Lontue 08-05-2026 15:30 18 62,3 0 2,3 164 93,1 993,5
62 Lontue 08-05-2026 15:15 18,1 56,9 0 1,5 185 429,4 993,4
61 Lontue 08-05-2026 15:00 17,8 57,5 0 1,1 194 451,9 993,5
60 Lontue 08-05-2026 14:45 17,2 60,2 0 1,9 185 458,1 993,5
59 Lontue 08-05-2026 14:30 17,6 54,8 0 2,3 197 488,1 993,7
58 Lontue 08-05-2026 14:15 17,6 54,6 0 3 204 525,6 993,9
57 Lontue 08-05-2026 14:00 17,5 57,5 0 2,7 220 536,9 993,9
56 Lontue 08-05-2026 13:45 17,5 53,8 0 1,5 211 554,4 994,2
55 Lontue 08-05-2026 13:30 17,7 54,3 0 1,1 260 569,4 994,3
54 Lontue 08-05-2026 13:15 17,4 50,7 0 0,4 212 586,9 994,5
53 Lontue 08-05-2026 13:00 17,2 51,6 0 0,8 209 601,9 994,8
52 Lontue 08-05-2026 12:45 16,7 57,9 0 0 115 603,1 994,8
51 Lontue 08-05-2026 12:30 15,6 59,4 0 0,4 140 621,9 995,2
50 Lontue 08-05-2026 12:15 15,6 58,5 0 0,8 316 593,1 995,3
49 Lontue 08-05-2026 12:00 14,8 59,5 0 0,4 271 681,9 995,4
48 Lontue 08-05-2026 11:45 13,9 65,4 0 0,4 302 600,6 995,7
47 Lontue 08-05-2026 11:30 13,6 63,4 0 0,4 271 580,6 995,8
46 Lontue 08-05-2026 11:15 11,9 66,2 0 1,5 271 713,1 996
45 Lontue 08-05-2026 11:00 11,3 71,9 0 0,4 329 360,6 996,1
44 Lontue 08-05-2026 10:45 11,9 68,8 0 0,8 21 139,4 996,1
43 Lontue 08-05-2026 10:30 10,4 73,1 0 0,8 20 138,1 996,2
42 Lontue 08-05-2026 10:15 10,3 74,6 0 0,4 20 439,4 996,6
41 Lontue 08-05-2026 10:00 9,6 76 0 0,8 21 420,6 996,8
40 Lontue 08-05-2026 09:45 9,1 79,3 0 0,4 24 371,9 996,7
39 Lontue 08-05-2026 09:30 8,4 82,5 0 0 84 226,9 997,3
38 Lontue 08-05-2026 09:15 7,9 83,8 0 0 121 284,4 997,4
37 Lontue 08-05-2026 09:00 6,9 88,8 0 0 117 250,6 997,1
36 Lontue 08-05-2026 08:45 6,1 90,5 0 0 72 209,4 997,2
35 Lontue 08-05-2026 08:30 4,8 91,1 0 0 60 161,9 997
34 Lontue 08-05-2026 08:15 4,2 91,8 0 0 60 104,4 996,8
33 Lontue 08-05-2026 08:00 3,5 92,9 0 0 63 84,4 996,6
32 Lontue 08-05-2026 07:45 2,4 92,9 0 0 86 35,6 996,6
31 Lontue 08-05-2026 07:30 1,6 92,3 0 0 72 3,1 996,6
30 Lontue 08-05-2026 07:15 1,9 92,2 0 0 62 0,6 996,9
29 Lontue 08-05-2026 07:00 2,2 92 0 0 62 0,6 997,1
28 Lontue 08-05-2026 06:45 2,1 91,9 0 0 62 0,6 997,4
27 Lontue 08-05-2026 06:30 2,2 91,2 0 0 62 0,6 997,3
26 Lontue 08-05-2026 06:15 2,4 91,1 0 0 62 0,6 997,2
25 Lontue 08-05-2026 06:00 2,7 90,8 0 0 62 0,6 997,3
24 Lontue 08-05-2026 05:45 3,5 90,6 0 0 112 0,6 997,5
23 Lontue 08-05-2026 05:30 4,1 90,7 0 1,1 112 0,6 997,5
22 Lontue 08-05-2026 05:15 4 91 0 0,8 121 0,6 997,4
21 Lontue 08-05-2026 05:00 3,7 90,6 0 0,4 124 0,6 997,5
20 Lontue 08-05-2026 04:45 3,8 90 0 0,4 129 0,6 997,3
19 Lontue 08-05-2026 04:30 4 89,5 0 0 135 0,6 997,2
18 Lontue 08-05-2026 04:15 4,5 89,2 0 0 135 0,6 997,4
17 Lontue 08-05-2026 04:00 4,7 88,5 0 0 135 0,6 997,3
16 Lontue 08-05-2026 03:45 4,8 89,1 0 0,8 124 0,6 997,8
15 Lontue 08-05-2026 03:30 4,4 89 0 0,4 122 0,6 998
14 Lontue 08-05-2026 03:15 4,6 89 0 0,8 122 0,6 998,3
13 Lontue 08-05-2026 03:00 4,8 88,9 0 0,4 122 0,6 998,2
12 Lontue 08-05-2026 02:45 4,6 89,5 0 0 122 0,6 998,1
11 Lontue 08-05-2026 02:30 4,6 88,4 0 0 122 0,6 998,4
10 Lontue 08-05-2026 02:15 5 87,4 0 0,4 122 0,6 998,5
9 Lontue 08-05-2026 02:00 5,4 87,3 0 0,8 122 0,6 998,5
8 Lontue 08-05-2026 01:45 5,5 86,2 0 1,1 124 0,6 998,5
7 Lontue 08-05-2026 01:30 5,6 87,5 0 0,4 124 0,6 998,7
6 Lontue 08-05-2026 01:15 5,8 86,6 0 0,4 135 0,6 998,8
5 Lontue 08-05-2026 01:00 6,1 86,7 0 0 136 0,6 998,9
4 Lontue 08-05-2026 00:45 5,8 87,1 0 0 136 0,6 999
3 Lontue 08-05-2026 00:30 6,3 84,8 0 0 136 0,6 999,1
2 Lontue 08-05-2026 00:15 7 82,1 0 0 138 0,6 998,9
1 Lontue 08-05-2026 00:00 7,8 79,5 0 0,4 147 0,6 999,4